Castlebar Airport

Jump to: basic info | weather | comments

Related pages: nearby airports | nearby navaids | notams | map

Basic information (top)

Codes: CLB EICB
Location: lon 53.848400, lat -9.280370
Status: small_airport

Weather (top)

Current conditions for Ireland West Knock Airport 17nm (31km) ENE (rec'd 2014/10/21 05:00Z):

EIKN 210500Z 29014KT 260V320 9999 FEW018CB SCT038 07/05 Q1002 NOSIG

Airport forecast for Ireland West Knock Airport 17nm (31km) ENE (rec'd 2014/10/20 00:25Z):

TAF EIKN 202300Z 2100/2124 22026G42KT 4000 RA BKN003 BKN010 
      BECMG 2100/2102 29018G30KT 9999 SCT020 
      TEMPO 2102/2109 29025G40KT SCT018CB 
      TEMPO 2108/2118 5000 SHRA SCT010 BKN017CB 
      BECMG 2116/2119 28010KT

Latest comments (top)

No longer exists.: This airport was closed in 2001 and the ... [read]

fv: fg [read]

More... (top)

See also NOTAMs and nearby airports and navaids, or visit the Castlebar Airport page at the main OurAirports website..